Home   Weather   Shiprock   Past weeks

Flag for USA Past Weather in Shiprock, New Mexico, USA — Yesterday and Last 2 Weeks

Now
32 °F

Clear.


Feels Like: 32 °F
Forecast: 22 / 45 °F
Wind: No wind

Location: Four Corners Regional Airport

Current Time: Dec 4, 2016 at 7:27:24 pm

Latest Report: Dec 4, 2016 at 6:53 pm


Visibility: 10 mi

Pressure: 30.19 "Hg (25.05 "Hg at 1492m altitude)

Humidity: 54%

Dew Point: 17 °F

Location of ShiprockLocation

Past Weather in Shiprock — Graph

°F

Shiprock Temperature Yesterday

Maximum temperature yesterday: 40 °F (at 3:53 pm)
Minimum temperature yesterday: 23 °F (at 4:03 am)
Average temperature yesterday: 30 °F

High & Low Weather Summary for the Past Weeks

 TemperatureHumidityPressure
High61 °F (Nov 20, 2:53 pm)100% (Nov 28, 7:53 pm)30.55 "Hg (Nov 28, 7:53 pm)
Low10 °F (Nov 30, 5:53 am)21% (Nov 20, 2:53 pm)29.57 "Hg (Nov 28, 10:00 pm)
Average35 °F68%30.09 "Hg
* Reported Nov 19 5:53 pm — Dec 4 5:53 pm, Shiprock, Weather by CustomWeather, © 2016

Note: Actual official high and low records may vary slightly from our data, if they occured in-between our weather recording intervals... More about our weather records

Advertising

Shiprock Weather History for the Previous 24 Hours

Scroll right to see more
 ConditionsComfort  
Time TempWeatherWind HumidityBarometerVisibility
5:53 pm
Sun, Dec 4
33 °FClear.No wind52%30.18 "Hg10 mi
4:53 pm38 °FSunny.No wind46%30.16 "Hg10 mi
3:53 pm41 °FSunny.3 mph38%30.15 "Hg10 mi
2:53 pm41 °FSunny.8 mph39%30.16 "Hg10 mi
1:53 pm39 °FSunny.3 mph43%30.17 "Hg10 mi
12:53 pm38 °FSunny.3 mph45%30.19 "Hg10 mi
11:53 am35 °FSunny.No wind50%30.24 "Hg10 mi
10:53 am31 °FSunny.No wind64%30.29 "Hg10 mi
9:53 am27 °FSunny.6 mph75%30.31 "Hg10 mi
8:53 am23 °FSunny.7 mph81%30.31 "Hg10 mi
7:53 am20 °FSunny.No wind82%30.31 "Hg10 mi
6:53 am17 °FClear.7 mph83%30.29 "Hg10 mi
5:53 am17 °FClear.6 mph88%30.27 "Hg10 mi
4:53 am19 °FClear.7 mph85%30.24 "Hg10 mi
3:53 am19 °FClear.6 mph85%30.22 "Hg10 mi
2:53 am21 °FClear.3 mph81%30.22 "Hg10 mi
1:53 am20 °FClear.5 mph78%30.21 "Hg10 mi
12:53 am23 °FClear.No wind68%30.19 "Hg10 mi
11:53 pm
Sat, Dec 3
24 °FClear.5 mph62%30.19 "Hg10 mi
10:53 pm24 °FClear.7 mph62%30.17 "Hg10 mi
9:53 pm27 °FClear.10 mph58%30.16 "Hg10 mi
8:53 pm31 °FClear.10 mph47%30.16 "Hg10 mi
7:53 pm31 °FClear.18 mph52%30.12 "Hg10 mi
Weather by CustomWeather, © 2016

See weather overviewHow to use our weather pages